Time,TemperatureF,DewpointF,PressureIn,WindDirection,WindDirectionDegrees,WindSpeedMPH,WindSpeedGustMPH,Humidity,HourlyPrecipIn,Conditions,Clouds,dailyrainin,SoftwareType,DateUTC
2013-06-28 01:42:00,59.0,34.0,-100.00,SE,128,4.0,7.0,39,0.00,,,-99.99,,2013-06-28 07:42:00,
2013-06-28 02:01:00,57.0,35.0,-100.00,SSE,151,6.0,7.0,43,0.00,,,-99.99,,2013-06-28 08:01:00,
2013-06-28 02:11:00,56.0,34.0,-100.00,SSE,162,6.0,8.0,42,0.00,,,-99.99,,2013-06-28 08:11:00,
2013-06-28 02:33:00,58.0,35.0,-100.00,SSE,164,4.0,9.0,43,0.00,,,-99.99,,2013-06-28 08:33:00,
2013-06-28 02:43:00,57.0,34.0,-100.00,SSE,154,3.0,4.0,42,0.00,,,-99.99,,2013-06-28 08:43:00,
2013-06-28 02:52:00,56.0,35.0,-100.00,SSE,147,2.0,4.0,44,0.00,,,-99.99,,2013-06-28 08:52:00,
2013-06-28 03:02:00,56.0,35.0,-100.00,SE,141,2.0,4.0,45,0.00,,,-99.99,,2013-06-28 09:02:00,
2013-06-28 03:11:00,56.0,35.0,-100.00,SE,131,3.0,4.0,45,0.00,,,-99.99,,2013-06-28 09:11:00,
2013-06-28 03:42:00,59.0,40.0,-100.00,East,92,4.0,6.0,50,0.00,,,-99.99,,2013-06-28 09:42:00,
2013-06-28 04:02:00,57.0,41.0,-100.00,ESE,102,4.0,7.0,54,0.00,,,-99.99,,2013-06-28 10:02:00,
2013-06-28 04:42:00,54.0,39.0,-100.00,SE,133,6.0,7.0,57,0.00,,,-99.99,,2013-06-28 10:42:00,
2013-06-28 05:43:00,54.0,39.0,-100.00,SE,141,6.0,7.0,57,0.00,,,-99.99,,2013-06-28 11:43:00,
2013-06-28 06:43:00,57.0,40.0,-100.00,SSW,200,1.0,3.0,52,0.00,,,-99.99,,2013-06-28 12:43:00,
2013-06-28 08:02:00,61.0,42.0,-100.00,WNW,295,5.0,7.0,49,0.00,,,-99.99,,2013-06-28 14:02:00,
2013-06-28 09:11:00,64.0,44.0,-100.00,WNW,302,7.0,9.0,48,0.00,,,-99.99,,2013-06-28 15:11:00,
2013-06-28 09:43:00,66.0,46.0,-100.00,WNW,292,5.0,8.0,48,0.00,,,-99.99,,2013-06-28 15:43:00,
2013-06-28 10:11:00,69.0,45.0,-100.00,NW,306,7.0,13.0,42,0.00,,,-99.99,,2013-06-28 16:11:00,
2013-06-28 10:44:00,72.0,43.0,-100.00,WNW,299,8.0,12.0,35,0.00,,,-99.99,,2013-06-28 16:44:00,
2013-06-28 11:44:00,76.0,43.0,-100.00,WNW,285,12.0,16.0,31,0.00,,,-99.99,,2013-06-28 17:44:00,
2013-06-28 12:11:00,78.0,40.0,-100.00,WNW,287,11.0,17.0,26,0.00,,,-99.99,,2013-06-28 18:11:00,
2013-06-28 12:43:00,79.0,40.0,-100.00,West,278,10.0,19.0,25,0.00,,,-99.99,,2013-06-28 18:43:00,
2013-06-28 13:43:00,81.0,35.0,-100.00,WNW,294,12.0,19.0,19,0.00,,,-99.99,,2013-06-28 19:43:00,
2013-06-28 14:11:00,81.0,34.0,-100.00,WNW,294,12.0,21.0,19,0.00,,,-99.99,,2013-06-28 20:11:00,
2013-06-28 14:43:00,82.0,35.0,-100.00,WNW,296,11.0,21.0,18,0.00,,,-99.99,,2013-06-28 20:43:00,
2013-06-28 15:01:00,83.0,34.0,-100.00,WNW,302,9.0,21.0,17,0.00,,,-99.99,,2013-06-28 21:01:00,
2013-06-28 15:11:00,83.0,33.0,-100.00,NW,308,9.0,19.0,16,0.00,,,-99.99,,2013-06-28 21:11:00,
2013-06-28 15:43:00,83.0,29.0,-100.00,West,270,13.0,24.0,14,0.00,,,-99.99,,2013-06-28 21:43:00,
2013-06-28 16:43:00,85.0,26.0,-100.00,WSW,246,16.0,24.0,12,0.00,,,-99.99,,2013-06-28 22:43:00,
2013-06-28 17:11:00,85.0,29.0,-100.00,West,261,12.0,21.0,13,0.00,,,-99.99,,2013-06-28 23:11:00,
2013-06-28 17:43:00,84.0,31.0,-100.00,NW,313,13.0,26.0,15,0.00,,,-99.99,,2013-06-28 23:43:00,
2013-06-28 17:53:00,83.0,32.0,-100.00,NW,306,11.0,16.0,16,0.00,,,-99.99,,2013-06-28 23:53:00,
2013-06-28 18:02:00,82.0,30.0,-100.00,NW,309,12.0,19.0,15,0.00,,,-99.99,,2013-06-29 00:02:00,
2013-06-28 18:42:00,82.0,31.0,-100.00,NW,322,13.0,19.0,15,0.00,,,-99.99,,2013-06-29 00:42:00,
2013-06-28 18:52:00,81.0,38.0,-100.00,NNW,329,16.0,26.0,22,0.00,,,-99.99,,2013-06-29 00:52:00,
2013-06-28 19:01:00,80.0,43.0,-100.00,North,8,18.0,24.0,27,0.00,,,-99.99,,2013-06-29 01:01:00,
2013-06-28 19:11:00,80.0,43.0,-100.00,NNE,23,15.0,20.0,27,0.00,,,-99.99,,2013-06-29 01:11:00,
2013-06-28 19:22:00,80.0,42.0,-100.00,NNE,25,15.0,21.0,27,0.00,,,-99.99,,2013-06-29 01:22:00,
2013-06-28 19:31:00,79.0,42.0,-100.00,NNE,25,12.0,17.0,27,0.00,,,-99.99,,2013-06-29 01:31:00,
2013-06-28 19:42:00,78.0,43.0,-100.00,NNE,30,16.0,22.0,29,0.00,,,-99.99,,2013-06-29 01:42:00,
2013-06-28 19:51:00,77.0,44.0,-100.00,NNE,25,17.0,22.0,30,0.00,,,-99.99,,2013-06-29 01:51:00,
2013-06-28 20:01:00,77.0,44.0,-100.00,NNE,24,14.0,19.0,31,0.00,,,-99.99,,2013-06-29 02:01:00,
2013-06-28 20:11:00,76.0,44.0,-100.00,NNE,32,13.0,17.0,32,0.00,,,-99.99,,2013-06-29 02:11:00,
2013-06-28 20:21:00,76.0,44.0,-100.00,NE,34,10.0,14.0,33,0.00,,,-99.99,,2013-06-29 02:21:00,
2013-06-28 20:31:00,75.0,45.0,-100.00,NNE,32,12.0,15.0,34,0.00,,,-99.99,,2013-06-29 02:31:00,
2013-06-28 20:41:00,74.0,45.0,-100.00,NNE,32,11.0,16.0,36,0.00,,,-99.99,,2013-06-29 02:41:00,
2013-06-28 20:51:00,73.0,46.0,-100.00,NE,34,13.0,18.0,38,0.00,,,-99.99,,2013-06-29 02:51:00,
2013-06-28 21:01:00,72.0,46.0,-100.00,NNE,32,11.0,14.0,39,0.00,,,-99.99,,2013-06-29 03:01:00,
2013-06-28 21:11:00,71.0,46.0,-100.00,NE,37,11.0,15.0,40,0.00,,,-99.99,,2013-06-29 03:11:00,
2013-06-28 21:21:00,71.0,46.0,-100.00,NE,34,10.0,14.0,42,0.00,,,-99.99,,2013-06-29 03:21:00,
2013-06-28 21:32:00,69.0,46.0,-100.00,NE,40,7.0,11.0,43,0.00,,,-99.99,,2013-06-29 03:32:00,
2013-06-28 21:41:00,69.0,46.0,-100.00,NE,49,6.0,7.0,45,0.00,,,-99.99,,2013-06-29 03:41:00,
2013-06-28 21:51:00,69.0,46.0,-100.00,ENE,72,4.0,6.0,45,0.00,,,-99.99,,2013-06-29 03:51:00,
2013-06-28 22:01:00,69.0,47.0,-100.00,East,89,3.0,4.0,44,0.00,,,-99.99,,2013-06-29 04:01:00,
2013-06-28 22:11:00,69.0,47.0,-100.00,ESE,113,6.0,9.0,46,0.00,,,-99.99,,2013-06-29 04:11:00,
2013-06-28 22:22:00,70.0,47.0,-100.00,East,96,6.0,11.0,44,0.00,,,-99.99,,2013-06-29 04:22:00,
2013-06-28 22:41:00,67.0,48.0,-100.00,ESE,117,7.0,11.0,49,0.00,,,-99.99,,2013-06-29 04:41:00,
2013-06-28 22:51:00,67.0,48.0,-100.00,ESE,107,7.0,9.0,49,0.00,,,-99.99,,2013-06-29 04:51:00,
2013-06-28 23:01:00,67.0,48.0,-100.00,ESE,103,9.0,12.0,51,0.00,,,-99.99,,2013-06-29 05:01:00,
2013-06-28 23:10:00,66.0,48.0,-100.00,ESE,106,9.0,12.0,53,0.00,,,-99.99,,2013-06-29 05:10:00,
2013-06-28 23:21:00,65.0,48.0,-100.00,ESE,104,10.0,12.0,53,0.00,,,-99.99,,2013-06-29 05:21:00,
2013-06-28 23:31:00,65.0,48.0,-100.00,ESE,109,9.0,12.0,55,0.00,,,-99.99,,2013-06-29 05:31:00,
2013-06-28 23:41:00,64.0,48.0,-100.00,ESE,110,8.0,11.0,57,0.00,,,-99.99,,2013-06-29 05:41:00,
2013-06-28 23:51:00,65.0,48.0,-100.00,ESE,104,10.0,13.0,55,0.00,,,-99.99,,2013-06-29 05:51:00,